Find Starlink 3828

NORAD ID: 52469 Int'l Des: 2022-049 Owner: SPXS Country: US Constellation: starlink operational
LEOCIRCULAR

リアルタイム位置

3D地球を読み込み中...

Starlink 3828について

説明を読み込み中...

次回通過

Passes for default location (London). Set your location on the main map for personalized predictions.

高度履歴

Loading altitude history...

軌道要素

1 52469U 22049U 26123.43818712 -.00000004 00000-0 17863-4 0 9995
2 52469 53.2164 173.3517 0001182 83.0068 277.1059 15.08836931220518
Epoch: May 3, 2026 • Age: 8 hours

現在のステータス

高度 559.1 km
速度 7.58 km/s
衛星直下点 -53.36°S, 49.37°W
打ち上げ日 May 6, 2022
運用期間 3.9 years
タイプ internet

技術仕様

分類 Payload
質量 297.00 kg
乾燥質量 220.00 kg
総質量 297.00 kg
長さ 0.20 m
直径 2.80 m
スパン 9.00 m
形状 Box + pan
製造者 SPXS
バスタイプ Starlink
フェーズステータス In Orbit
所有者/国 SPXS/US

Most Searched